Location: Chuathbaluk
(61.5726°N, 159.2454°W)
Time: 15:05:25
(UTC+00:00)

ZACube-1 - Pass Details

Date: 23 January 2021
Orbit: 583 x 666 km, 97.6° (Epoch: 01 March)

Event Time Altitude Azimuth Distance (km) Brightness Sun altitude
Rises 14:10:17 0° 23° (NNE) 3,025 ? -35.3°
Reaches altitude 10° 14:13:44 10° 50° (NE) 2,102 ? -34.9°
Maximum altitude 14:15:58 13° 79° (E) 1,878 ? -34.7°
Drops below altitude 10° 14:18:10 10° 109° (ESE) 2,084 ? -34.4°
Sets 14:21:33 0° 136° (SE) 2,978 ? -34.1°
